When you browse on this site, cookies collect data to enhance your experience and personalize the content and advertising you see.
Visit our Privacy Policy to learn more. By continuing to use the site, you agree to this use of cookies and data.
  • In Spain
  • List of Countries
  • For 7 days
  • Water Temperature
  • Weather Map
  • Weather Widgets
  • user-avatar
    Login

    Hourly Weather Nottingham

    Today, 6 December, Friday

    Time Temperature Precipitation Wind Pressure Humidity
    00:00 +10°C° 0 mm 7 mps 748 mmHg 84%
    01:00 +10°C° 0.1 mm 7 mps 748 mmHg 86%
    02:00 +10°C° 0.1 mm 7 mps 747 mmHg 88%
    03:00 +10°C° 0.1 mm 7 mps 747 mmHg 89%
    04:00 +10°C° 0 mm 7 mps 747 mmHg 90%
    05:00 +10°C° 0 mm 7 mps 747 mmHg 90%
    06:00 +10°C° 0 mm 7 mps 746 mmHg 91%
    07:00 +10°C° 0 mm 7 mps 745 mmHg 90%
    08:00 +10°C° 0 mm 7 mps 745 mmHg 90%
    09:00 +10°C° 0 mm 7 mps 744 mmHg 90%
    10:00 +11°C° 0.1 mm 7 mps 744 mmHg 86%
    11:00 +11°C° 0.1 mm 8 mps 744 mmHg 81%
    12:00 +11°C° 0.1 mm 8 mps 743 mmHg 76%
    13:00 +11°C° 0.7 mm 7 mps 743 mmHg 79%
    14:00 +10°C° 0.7 mm 7 mps 743 mmHg 82%
    15:00 +9°C° 0.7 mm 6 mps 742 mmHg 86%
    16:00 +9°C° 0.2 mm 7 mps 743 mmHg 84%
    17:00 +8°C° 0.2 mm 7 mps 744 mmHg 83%
    18:00 +8°C° 0.2 mm 7 mps 745 mmHg 81%
    19:00 +8°C° 0 mm 6 mps 746 mmHg 83%
    20:00 +7°C° 0 mm 6 mps 747 mmHg 84%
    21:00 +7°C° 0 mm 6 mps 747 mmHg 85%
    22:00 +7°C° 0 mm 5 mps 748 mmHg 85%
    23:00 +7°C° 0 mm 5 mps 749 mmHg 86%

    Tomorrow, 7 December, Saturday

    Time Temperature Precipitation Wind Pressure Humidity
    00:00 +7°C° 0 mm 5 mps 749 mmHg 86%
    01:00 +7°C° 0 mm 5 mps 750 mmHg 86%
    02:00 +7°C° 0 mm 5 mps 750 mmHg 85%
    03:00 +7°C° 0 mm 5 mps 750 mmHg 85%
    04:00 +7°C° 0 mm 5 mps 751 mmHg 86%
    05:00 +7°C° 0 mm 5 mps 751 mmHg 87%
    06:00 +6°C° 0 mm 4 mps 751 mmHg 88%
    07:00 +6°C° 0 mm 4 mps 752 mmHg 88%
    08:00 +6°C° 0 mm 4 mps 752 mmHg 88%
    09:00 +6°C° 0 mm 4 mps 752 mmHg 88%
    10:00 +7°C° 0 mm 4 mps 752 mmHg 85%
    11:00 +8°C° 0 mm 5 mps 753 mmHg 82%
    12:00 +8°C° 0 mm 5 mps 753 mmHg 79%
    13:00 +8°C° 0 mm 4 mps 752 mmHg 81%
    14:00 +8°C° 0 mm 4 mps 752 mmHg 83%
    15:00 +7°C° 0 mm 4 mps 752 mmHg 84%
    16:00 +7°C° 0 mm 4 mps 751 mmHg 86%
    17:00 +7°C° 0 mm 5 mps 751 mmHg 88%
    18:00 +6°C° 0 mm 5 mps 751 mmHg 90%
    19:00 +7°C° 0 mm 6 mps 750 mmHg 90%
    20:00 +6°C° 0 mm 7 mps 749 mmHg 90%
    21:00 +6°C° 0 mm 8 mps 748 mmHg 90%
    22:00 +7°C° 0.1 mm 9 mps 747 mmHg 89%
    23:00 +7°C° 0.1 mm 9 mps 746 mmHg 87%

    Day after tomorrow, 8 December, Sunday

    Time Temperature Precipitation Wind Pressure Humidity
    00:00 +7°C° 0.1 mm 10 mps 744 mmHg 86%
    01:00 +8°C° 0.8 mm 10 mps 743 mmHg 87%
    02:00 +8°C° 0.8 mm 10 mps 741 mmHg 88%
    03:00 +9°C° 0.8 mm 11 mps 740 mmHg 88%
    04:00 +8°C° 0.2 mm 10 mps 740 mmHg 84%
    05:00 +8°C° 0.2 mm 9 mps 740 mmHg 80%
    06:00 +7°C° 0.2 mm 8 mps 741 mmHg 75%
    07:00 +6°C° 0 mm 8 mps 741 mmHg 76%
    08:00 +5°C° 0 mm 8 mps 741 mmHg 78%
    09:00 +5°C° 0 mm 8 mps 741 mmHg 79%
    10:00 +5°C° 0.1 mm 8 mps 741 mmHg 75%
    11:00 +6°C° 0.1 mm 9 mps 741 mmHg 71%
    12:00 +6°C° 0.1 mm 9 mps 741 mmHg 68%
    13:00 +6°C° 0 mm 9 mps 740 mmHg 68%
    14:00 +5°C° 0 mm 8 mps 740 mmHg 68%
    15:00 +5°C° 0 mm 8 mps 739 mmHg 68%
    16:00 +4°C° 0 mm 8 mps 739 mmHg 70%
    17:00 +4°C° 0 mm 8 mps 739 mmHg 71%
    18:00 +4°C° 0 mm 8 mps 738 mmHg 72%
    19:00 +3°C° 0 mm 9 mps 737 mmHg 74%
    20:00 +3°C° 0 mm 10 mps 736 mmHg 77%
    21:00 +3°C° 0 mm 11 mps 734 mmHg 79%
    22:00 +4°C° 0.2 mm 11 mps 733 mmHg 76%
    23:00 +4°C° 0.2 mm 12 mps 733 mmHg 73%

    9 December, Monday

    Time Temperature Precipitation Wind Pressure Humidity
    00:00 +4°C° 0.2 mm 12 mps 732 mmHg 70%
    01:00 +4°C° 0.1 mm 11 mps 732 mmHg 72%
    02:00 +3°C° 0.1 mm 10 mps 732 mmHg 75%
    03:00 +3°C° 0.1 mm 9 mps 732 mmHg 77%
    04:00 +4°C° 0.1 mm 8 mps 734 mmHg 77%
    05:00 +4°C° 0.1 mm 7 mps 735 mmHg 77%
    06:00 +4°C° 0.1 mm 7 mps 736 mmHg 77%
    07:00 +4°C° 0 mm 6 mps 738 mmHg 77%
    08:00 +4°C° 0 mm 6 mps 740 mmHg 77%
    09:00 +4°C° 0 mm 6 mps 742 mmHg 77%
    10:00 +4°C° 0 mm 6 mps 744 mmHg 73%
    11:00 +5°C° 0 mm 7 mps 745 mmHg 69%
    12:00 +5°C° 0 mm 8 mps 747 mmHg 65%
    13:00 +5°C° 0 mm 7 mps 749 mmHg 65%
    14:00 +4°C° 0 mm 6 mps 750 mmHg 66%
    15:00 +4°C° 0 mm 6 mps 752 mmHg 67%
    16:00 +3°C° 0 mm 5 mps 753 mmHg 69%
    17:00 +3°C° 0 mm 4 mps 754 mmHg 71%
    18:00 +3°C° 0 mm 4 mps 756 mmHg 73%
    19:00 +2°C° 0 mm 3 mps 757 mmHg 73%
    20:00 +2°C° 0 mm 3 mps 757 mmHg 74%
    21:00 +2°C° 0 mm 2 mps 758 mmHg 75%
    22:00 +2°C° 0 mm 2 mps 759 mmHg 76%
    23:00 +2°C° 0 mm 2 mps 759 mmHg 76%

    10 December, Tuesday

    Time Temperature Precipitation Wind Pressure Humidity
    00:00 +2°C° 0 mm 1 mps 759 mmHg 77%
    01:00 +1°C° 0 mm 2 mps 759 mmHg 79%
    02:00 +1°C° 0 mm 2 mps 759 mmHg 81%
    03:00 +1°C° 0 mm 2 mps 759 mmHg 83%
    04:00 +1°C° 0 mm 3 mps 758 mmHg 82%
    05:00 +1°C° 0 mm 3 mps 757 mmHg 82%
    06:00 0°C° 0 mm 4 mps 756 mmHg 81%
    07:00 +1°C° 0 mm 5 mps 755 mmHg 81%
    08:00 +2°C° 0 mm 6 mps 754 mmHg 82%
    09:00 +3°C° 0 mm 7 mps 753 mmHg 83%
    10:00 +2°C° 1.3 mm 8 mps 752 mmHg 84%
    11:00 +3°C° 1.3 mm 9 mps 750 mmHg 86%
    12:00 +5°C° 1.3 mm 10 mps 748 mmHg 88%
    13:00 +6°C° 0.1 mm 11 mps 746 mmHg 88%
    14:00 +7°C° 0.1 mm 11 mps 744 mmHg 87%
    15:00 +8°C° 0.1 mm 11 mps 743 mmHg 87%
    16:00 +8°C° 0.8 mm 11 mps 742 mmHg 88%
    17:00 +9°C° 0.8 mm 12 mps 741 mmHg 88%
    18:00 +9°C° 0.8 mm 12 mps 740 mmHg 89%
    19:00 +8°C° 1.2 mm 10 mps 741 mmHg 86%
    20:00 +6°C° 1.2 mm 8 mps 742 mmHg 84%
    21:00 +4°C° 1.2 mm 7 mps 743 mmHg 81%
    22:00 +3°C° 0 mm 6 mps 744 mmHg 80%
    23:00 +3°C° 0 mm 6 mps 744 mmHg 79%

    11 December, Wednesday

    Time Temperature Precipitation Wind Pressure Humidity
    00:00 +2°C° 0 mm 6 mps 745 mmHg 78%
    01:00 +2°C° 0 mm 6 mps 745 mmHg 77%
    02:00 +2°C° 0 mm 6 mps 745 mmHg 77%
    03:00 +2°C° 0 mm 6 mps 745 mmHg 76%
    04:00 +2°C° 0 mm 6 mps 745 mmHg 77%
    05:00 +1°C° 0 mm 6 mps 745 mmHg 78%
    06:00 +1°C° 0 mm 6 mps 745 mmHg 79%
    07:00 +1°C° 0 mm 6 mps 745 mmHg 80%
    08:00 +1°C° 0 mm 6 mps 745 mmHg 80%
    09:00 +1°C° 0 mm 6 mps 745 mmHg 81%
    10:00 +2°C° 0 mm 6 mps 744 mmHg 78%
    11:00 +3°C° 0 mm 6 mps 744 mmHg 74%
    12:00 +3°C° 0 mm 6 mps 744 mmHg 71%
    13:00 +3°C° 0 mm 5 mps 743 mmHg 73%
    14:00 +3°C° 0 mm 5 mps 743 mmHg 75%
    15:00 +3°C° 0 mm 4 mps 743 mmHg 77%
    16:00 +3°C° 0 mm 4 mps 743 mmHg 78%
    17:00 +1°C° 0 mm 5 mps 743 mmHg 80%
    18:00 +1°C° 0 mm 5 mps 743 mmHg 81%
    19:00 +1°C° 0 mm 5 mps 742 mmHg 81%
    20:00 +1°C° 0 mm 5 mps 742 mmHg 80%
    21:00 +1°C° 0 mm 6 mps 742 mmHg 79%
    22:00 +1°C° 0 mm 6 mps 741 mmHg 80%
    23:00 +1°C° 0 mm 6 mps 741 mmHg 81%
    Show more